• In Österreich
  • Länderverzeichnis
  • Für 7 Tage
  • Wassertemperatur
  • Satellitenkarten
  • Wetterkarte
  • News
  • Widgets
  • user-avatar
    Anmelden

    Stündliche Wetter Fier

    Heute, 25 September, Dienstag

    Zeit Temperatur Niederschläge Wind Luftdruck Luftfeuchtigkeit
    00:00 +21°C° 0.1 mm 4 m/S 762 mmHg 78%
    01:00 +20°C° 0 mm 6 m/S 763 mmHg 73%
    02:00 +20°C° 0 mm 6 m/S 763 mmHg 70%
    03:00 +19°C° 0 mm 6 m/S 763 mmHg 68%
    04:00 +17°C° 0 mm 6 m/S 764 mmHg 66%
    05:00 +17°C° 0 mm 6 m/S 764 mmHg 62%
    06:00 +17°C° 0 mm 6 m/S 764 mmHg 58%
    07:00 +18°C° 0 mm 7 m/S 764 mmHg 52%
    08:00 +20°C° 0 mm 7 m/S 764 mmHg 47%
    09:00 +22°C° 0 mm 7 m/S 765 mmHg 41%
    10:00 +24°C° 0 mm 7 m/S 765 mmHg 36%
    11:00 +26°C° 0 mm 7 m/S 765 mmHg 33%
    12:00 +27°C° 0 mm 7 m/S 764 mmHg 29%
    13:00 +28°C° 0 mm 7 m/S 764 mmHg 26%
    14:00 +27°C° 0 mm 7 m/S 764 mmHg 25%
    15:00 +27°C° 0 mm 7 m/S 764 mmHg 25%
    16:00 +26°C° 0 mm 8 m/S 764 mmHg 24%
    17:00 +23°C° 0 mm 7 m/S 765 mmHg 26%
    18:00 +21°C° 0 mm 7 m/S 765 mmHg 28%
    19:00 +19°C° 0 mm 6 m/S 766 mmHg 30%
    20:00 +17°C° 0 mm 6 m/S 766 mmHg 31%
    21:00 +16°C° 0 mm 6 m/S 767 mmHg 32%
    22:00 +15°C° 0 mm 6 m/S 767 mmHg 33%
    23:00 +15°C° 0 mm 6 m/S 767 mmHg 35%

    Morgen, 26 September, Mittwoch

    Zeit Temperatur Niederschläge Wind Luftdruck Luftfeuchtigkeit
    00:00 +14°C° 0 mm 6 m/S 767 mmHg 37%
    01:00 +13°C° 0 mm 6 m/S 768 mmHg 38%
    02:00 +13°C° 0 mm 6 m/S 768 mmHg 40%
    03:00 +11°C° 0 mm 6 m/S 768 mmHg 42%
    04:00 +11°C° 0 mm 6 m/S 768 mmHg 43%
    05:00 +13°C° 0 mm 6 m/S 768 mmHg 42%
    06:00 +13°C° 0 mm 6 m/S 768 mmHg 41%
    07:00 +14°C° 0 mm 7 m/S 768 mmHg 40%
    08:00 +16°C° 0 mm 7 m/S 769 mmHg 36%
    09:00 +17°C° 0 mm 7 m/S 769 mmHg 33%
    10:00 +20°C° 0 mm 7 m/S 769 mmHg 29%
    11:00 +21°C° 0 mm 7 m/S 769 mmHg 28%
    12:00 +22°C° 0 mm 7 m/S 768 mmHg 27%
    13:00 +22°C° 0 mm 7 m/S 768 mmHg 25%
    14:00 +22°C° 0 mm 7 m/S 768 mmHg 26%
    15:00 +22°C° 0 mm 8 m/S 768 mmHg 26%
    16:00 +21°C° 0 mm 8 m/S 768 mmHg 26%
    17:00 +18°C° 0 mm 7 m/S 768 mmHg 28%
    18:00 +17°C° 0 mm 7 m/S 769 mmHg 30%
    19:00 +15°C° 0 mm 7 m/S 769 mmHg 32%
    20:00 +14°C° 0 mm 6 m/S 770 mmHg 34%
    21:00 +13°C° 0 mm 6 m/S 770 mmHg 36%
    22:00 +11°C° 0 mm 6 m/S 771 mmHg 37%
    23:00 +11°C° 0 mm 6 m/S 771 mmHg 39%

    übermorgen, 27 September, Donnerstag

    Zeit Temperatur Niederschläge Wind Luftdruck Luftfeuchtigkeit
    00:00 +10°C° 0 mm 6 m/S 771 mmHg 41%
    01:00 +10°C° 0 mm 6 m/S 771 mmHg 43%
    02:00 +10°C° 0 mm 6 m/S 770 mmHg 45%
    03:00 +9°C° 0 mm 6 m/S 770 mmHg 47%
    04:00 +9°C° 0 mm 6 m/S 770 mmHg 48%
    05:00 +10°C° 0 mm 6 m/S 770 mmHg 47%
    06:00 +10°C° 0 mm 6 m/S 769 mmHg 45%
    07:00 +11°C° 0 mm 6 m/S 769 mmHg 43%
    08:00 +15°C° 0 mm 6 m/S 769 mmHg 36%
    09:00 +17°C° 0 mm 6 m/S 769 mmHg 28%
    10:00 +20°C° 0 mm 6 m/S 769 mmHg 21%
    11:00 +22°C° 0 mm 6 m/S 768 mmHg 19%
    12:00 +23°C° 0 mm 6 m/S 767 mmHg 17%
    13:00 +24°C° 0 mm 6 m/S 767 mmHg 15%
    14:00 +24°C° 0 mm 6 m/S 766 mmHg 15%
    15:00 +24°C° 0 mm 6 m/S 766 mmHg 15%
    16:00 +24°C° 0 mm 6 m/S 765 mmHg 15%
    17:00 +21°C° 0 mm 6 m/S 765 mmHg 18%
    18:00 +19°C° 0 mm 5 m/S 765 mmHg 21%
    19:00 +16°C° 0 mm 5 m/S 766 mmHg 24%
    20:00 +15°C° 0 mm 5 m/S 766 mmHg 25%
    21:00 +15°C° 0 mm 5 m/S 766 mmHg 26%
    22:00 +14°C° 0 mm 5 m/S 766 mmHg 27%
    23:00 +14°C° 0 mm 5 m/S 765 mmHg 29%

    28 September, Freitag

    Zeit Temperatur Niederschläge Wind Luftdruck Luftfeuchtigkeit
    00:00 +13°C° 0 mm 5 m/S 765 mmHg 30%
    01:00 +13°C° 0 mm 5 m/S 765 mmHg 32%
    02:00 +13°C° 0 mm 5 m/S 764 mmHg 33%
    03:00 +13°C° 0 mm 5 m/S 764 mmHg 34%
    04:00 +13°C° 0 mm 5 m/S 763 mmHg 35%
    05:00 +13°C° 0 mm 5 m/S 763 mmHg 34%
    06:00 +14°C° 0 mm 5 m/S 763 mmHg 33%
    07:00 +15°C° 0 mm 5 m/S 762 mmHg 31%
    08:00 +19°C° 0 mm 4 m/S 762 mmHg 27%
    09:00 +22°C° 0 mm 4 m/S 762 mmHg 23%
    10:00 +25°C° 0 mm 4 m/S 762 mmHg 18%
    11:00 +26°C° 0 mm 4 m/S 761 mmHg 19%
    12:00 +27°C° 0 mm 3 m/S 760 mmHg 19%
    13:00 +29°C° 0 mm 3 m/S 760 mmHg 20%
    14:00 +28°C° 0 mm 3 m/S 759 mmHg 21%
    15:00 +28°C° 0 mm 4 m/S 759 mmHg 22%
    16:00 +28°C° 0 mm 4 m/S 759 mmHg 24%
    17:00 +26°C° 0 mm 4 m/S 759 mmHg 26%
    18:00 +23°C° 0 mm 4 m/S 759 mmHg 29%
    19:00 +21°C° 0 mm 4 m/S 759 mmHg 31%
    20:00 +21°C° 0 mm 4 m/S 760 mmHg 32%
    21:00 +20°C° 0 mm 3 m/S 760 mmHg 33%
    22:00 +20°C° 0 mm 3 m/S 760 mmHg 33%
    23:00 +19°C° 0 mm 3 m/S 760 mmHg 36%

    29 September, Samstag

    Zeit Temperatur Niederschläge Wind Luftdruck Luftfeuchtigkeit
    00:00 +18°C° 0 mm 3 m/S 759 mmHg 38%
    01:00 +18°C° 0 mm 3 m/S 759 mmHg 41%
    02:00 +18°C° 0 mm 2 m/S 759 mmHg 42%
    03:00 +17°C° 0 mm 2 m/S 759 mmHg 43%
    04:00 +17°C° 0 mm 2 m/S 759 mmHg 44%
    05:00 +18°C° 0 mm 2 m/S 759 mmHg 43%
    06:00 +18°C° 0 mm 2 m/S 759 mmHg 42%
    07:00 +19°C° 0 mm 2 m/S 759 mmHg 42%
    08:00 +23°C° 0 mm 2 m/S 759 mmHg 39%
    09:00 +25°C° 0 mm 3 m/S 759 mmHg 36%
    10:00 +28°C° 0 mm 3 m/S 759 mmHg 33%
    11:00 +28°C° 0 mm 3 m/S 758 mmHg 33%
    12:00 +29°C° 0 mm 4 m/S 758 mmHg 32%
    13:00 +30°C° 0 mm 5 m/S 757 mmHg 32%
    14:00 +30°C° 0 mm 5 m/S 757 mmHg 32%
    15:00 +30°C° 0 mm 6 m/S 757 mmHg 33%
    16:00 +30°C° 0 mm 6 m/S 757 mmHg 33%
    17:00 +27°C° 0 mm 6 m/S 757 mmHg 38%
    18:00 +24°C° 0 mm 6 m/S 758 mmHg 42%
    19:00 +22°C° 0 mm 6 m/S 758 mmHg 47%
    20:00 +22°C° 0 mm 5 m/S 758 mmHg 48%
    21:00 +21°C° 0 mm 5 m/S 759 mmHg 49%
    22:00 +21°C° 0 mm 4 m/S 759 mmHg 50%
    23:00 +20°C° 0 mm 5 m/S 759 mmHg 51%

    30 September, Sonntag

    Zeit Temperatur Niederschläge Wind Luftdruck Luftfeuchtigkeit
    00:00 +20°C° 0 mm 5 m/S 759 mmHg 52%
    01:00 +19°C° 0 mm 5 m/S 759 mmHg 54%
    02:00 +19°C° 0 mm 5 m/S 759 mmHg 54%
    03:00 +17°C° 0 mm 5 m/S 759 mmHg 54%
    04:00 +17°C° 0 mm 5 m/S 759 mmHg 54%
    05:00 +19°C° 0 mm 5 m/S 759 mmHg 51%
    06:00 +20°C° 0 mm 5 m/S 759 mmHg 49%
    07:00 +20°C° 0 mm 5 m/S 759 mmHg 47%
    08:00 +22°C° 0 mm 5 m/S 759 mmHg 43%
    09:00 +25°C° 0 mm 5 m/S 759 mmHg 39%
    10:00 +28°C° 0 mm 5 m/S 759 mmHg 35%
    11:00 +28°C° 0 mm 5 m/S 759 mmHg 34%
    12:00 +29°C° 0 mm 4 m/S 759 mmHg 34%
    13:00 +29°C° 0 mm 4 m/S 759 mmHg 33%
    14:00 +29°C° 0 mm 5 m/S 759 mmHg 35%
    15:00 +28°C° 0 mm 5 m/S 759 mmHg 37%
    16:00 +28°C° 0 mm 6 m/S 758 mmHg 39%
    17:00 +26°C° 0 mm 6 m/S 759 mmHg 44%
    18:00 +23°C° 0 mm 5 m/S 759 mmHg 50%
    19:00 +21°C° 0 mm 5 m/S 759 mmHg 56%
    20:00 +20°C° 0 mm 4 m/S 759 mmHg 59%
    21:00 +20°C° 0 mm 4 m/S 759 mmHg 62%
    22:00 +19°C° 0 mm 3 m/S 759 mmHg 65%
    23:00 +18°C° 0 mm 3 m/S 759 mmHg 66%
    Mehr zeigen